TimeCDT,TemperatureF,Dew PointF,Humidity,Sea Level PressureIn,VisibilityMPH,Wind Direction,Wind SpeedMPH,Gust SpeedMPH,PrecipitationIn,Events,Conditions,WindDirDegrees,DateUTC
12:15 AM,39.7,39.6,99,29.66,4.0,NNE,15.0,20.7,0.01,Rain,Rain,30,2013-03-10 06:15:00
12:35 AM,39.2,38.8,99,29.67,7.0,North,17.3,-,0.01,,Light Drizzle,10,2013-03-10 06:35:00
12:55 AM,37.8,37.6,99,29.65,7.0,North,18.4,25.3,0.01,,Overcast,10,2013-03-10 06:55:00
1:15 AM,37.4,37.2,99,29.67,5.0,North,17.3,-,N/A,,Overcast,360,2013-03-10 07:15:00
1:35 AM,37.0,36.9,99,29.67,5.0,North,15.0,-,N/A,,Overcast,360,2013-03-10 07:35:00
1:55 AM,36.9,36.7,99,29.68,5.0,North,17.3,20.7,N/A,,Drizzle,360,2013-03-10 07:55:00
3:15 AM,36.5,36.5,100,29.66,2.5,North,20.7,31.1,N/A,Rain,Light Rain,10,2013-03-10 08:15:00
3:35 AM,36.1,36.0,99,29.67,3.0,North,24.2,32.2,0.01,Rain,Rain,10,2013-03-10 08:35:00
3:55 AM,35.8,35.6,99,29.66,4.0,NNE,28.8,34.5,0.01,Rain,Light Rain,20,2013-03-10 08:55:00
4:15 AM,35.4,34.9,98,29.64,5.0,NNE,24.2,34.5,N/A,,Light Drizzle,20,2013-03-10 09:15:00
4:35 AM,35.2,34.7,98,29.68,7.0,North,21.9,31.1,N/A,,Overcast,10,2013-03-10 09:35:00
4:55 AM,34.7,34.2,98,29.67,7.0,North,24.2,31.1,N/A,Rain,Light Rain,10,2013-03-10 09:55:00
5:15 AM,34.7,33.8,97,29.67,7.0,North,24.2,33.4,N/A,Rain,Rain,10,2013-03-10 10:15:00
5:35 AM,34.3,33.8,98,29.68,7.0,North,21.9,-,N/A,,Light Drizzle,10,2013-03-10 10:35:00
5:55 AM,34.2,33.8,99,29.72,7.0,North,20.7,27.6,N/A,,Overcast,10,2013-03-10 10:55:00
6:15 AM,34.2,33.3,97,29.73,7.0,North,18.4,24.2,N/A,Rain,Light Rain,10,2013-03-10 11:15:00
6:35 AM,33.8,32.9,96,29.72,5.0,North,21.9,28.8,N/A,,Light Drizzle,360,2013-03-10 11:35:00
7:15 AM,33.1,32.2,96,29.73,7.0,North,20.7,28.8,N/A,,Overcast,10,2013-03-10 12:15:00
7:35 AM,32.9,32.0,96,29.73,7.0,North,24.2,29.9,N/A,,Overcast,10,2013-03-10 12:35:00
7:55 AM,32.7,32.0,97,29.74,7.0,North,25.3,32.2,N/A,,Overcast,10,2013-03-10 12:55:00
8:15 AM,32.5,31.8,97,29.76,7.0,North,21.9,28.8,N/A,,Overcast,10,2013-03-10 13:15:00
8:35 AM,32.2,31.6,98,29.76,5.0,North,23.0,32.2,N/A,,Overcast,10,2013-03-10 13:35:00
8:55 AM,32.0,31.8,99,29.77,4.0,North,23.0,31.1,N/A,,Overcast,360,2013-03-10 13:55:00
9:15 AM,32.0,31.5,98,29.78,4.0,North,20.7,26.5,N/A,,Overcast,10,2013-03-10 14:15:00
9:35 AM,32.0,31.3,97,29.75,2.5,North,21.9,32.2,N/A,,Overcast,10,2013-03-10 14:35:00
9:55 AM,32.0,31.3,97,29.78,2.0,North,24.2,31.1,N/A,,Overcast,10,2013-03-10 14:55:00
10:15 AM,32.0,31.1,96,29.79,1.8,North,21.9,28.8,N/A,,Overcast,10,2013-03-10 15:15:00
10:35 AM,31.8,31.1,97,29.80,1.8,North,18.4,27.6,N/A,Snow,Light Snow,360,2013-03-10 15:35:00
10:55 AM,31.6,31.1,98,29.80,2.0,North,20.7,27.6,N/A,,Overcast,10,2013-03-10 15:55:00
11:15 AM,31.1,30.7,99,29.79,1.8,North,19.6,31.1,N/A,,Overcast,360,2013-03-10 16:15:00
11:35 AM,31.1,30.6,98,29.81,2.0,North,19.6,27.6,N/A,Snow,Light Snow,360,2013-03-10 16:35:00
11:55 AM,30.9,30.2,97,29.81,1.2,North,19.6,23.0,N/A,Snow,Light Snow,360,2013-03-10 16:55:00
12:15 PM,30.2,29.5,97,29.81,1.2,North,21.9,27.6,N/A,Snow,Light Snow,360,2013-03-10 17:15:00
12:35 PM,30.0,29.3,97,29.82,1.0,North,23.0,27.6,N/A,Snow,Light Snow,350,2013-03-10 17:35:00
12:55 PM,30.0,29.1,96,29.81,0.8,North,21.9,32.2,N/A,Snow,Light Snow,350,2013-03-10 17:55:00
1:15 PM,30.0,29.1,96,29.81,0.5,North,26.5,34.5,N/A,Snow,Snow,360,2013-03-10 18:15:00
1:35 PM,29.7,28.9,97,29.80,0.2,North,24.2,32.2,N/A,Snow,Snow,360,2013-03-10 18:35:00
1:55 PM,29.3,28.9,99,29.80,0.2,North,23.0,29.9,N/A,Snow,Snow,350,2013-03-10 18:55:00
2:15 PM,29.3,28.4,96,29.80,0.5,North,21.9,28.8,N/A,Snow,Snow,360,2013-03-10 19:15:00
2:35 PM,29.3,28.0,95,29.80,0.5,North,19.6,32.2,N/A,Snow,Snow,350,2013-03-10 19:35:00
2:55 PM,29.1,28.0,96,29.79,0.2,North,23.0,31.1,N/A,Snow,Snow,350,2013-03-10 19:55:00
3:15 PM,29.1,28.0,96,29.80,0.8,North,24.2,29.9,N/A,Snow,Light Snow,350,2013-03-10 20:15:00
3:35 PM,29.1,27.9,95,29.81,0.8,North,27.6,36.8,N/A,Snow,Light Snow,350,2013-03-10 20:35:00
3:55 PM,28.8,27.5,95,29.82,0.8,North,20.7,35.7,N/A,Snow,Light Snow,350,2013-03-10 20:55:00
4:15 PM,28.8,27.5,95,29.83,1.0,NNW,23.0,28.8,N/A,Snow,Light Snow,340,2013-03-10 21:15:00
4:35 PM,27.7,26.6,96,29.83,0.8,NNW,26.5,34.5,N/A,Snow,Light Snow,340,2013-03-10 21:35:00
4:55 PM,27.5,26.2,95,29.84,0.8,NNW,21.9,32.2,N/A,Snow,Light Snow,340,2013-03-10 21:55:00
5:15 PM,27.5,26.4,96,29.84,1.2,NNW,21.9,27.6,N/A,Snow,Light Snow,340,2013-03-10 22:15:00
5:35 PM,27.1,25.7,94,29.85,1.0,NNW,25.3,31.1,N/A,Snow,Light Snow,340,2013-03-10 22:35:00
5:55 PM,26.6,25.5,96,29.85,0.8,NNW,20.7,27.6,N/A,Snow,Light Snow,330,2013-03-10 22:55:00
6:15 PM,26.2,25.0,95,29.85,0.8,NNW,24.2,29.9,N/A,Snow,Light Snow,340,2013-03-10 23:15:00
6:35 PM,25.7,24.8,96,29.86,0.8,NNW,23.0,29.9,N/A,Snow,Light Snow,340,2013-03-10 23:35:00
6:55 PM,25.5,24.6,96,29.86,0.5,NNW,24.2,31.1,N/A,Snow,Snow,340,2013-03-10 23:55:00
7:15 PM,25.5,24.4,96,29.87,0.8,NNW,21.9,31.1,N/A,Snow,Light Snow,330,2013-03-11 00:15:00
7:35 PM,25.3,23.7,94,29.87,2.0,NNW,26.5,31.1,N/A,Snow,Light Snow,330,2013-03-11 00:35:00
7:55 PM,24.8,23.4,94,29.87,2.0,NNW,21.9,31.1,N/A,Snow,Light Snow,340,2013-03-11 00:55:00
8:15 PM,24.8,23.2,94,29.88,1.8,NNW,23.0,32.2,N/A,Snow,Light Snow,330,2013-03-11 01:15:00
8:35 PM,24.6,22.8,93,29.88,3.0,NNW,25.3,31.1,N/A,Snow,Light Snow,330,2013-03-11 01:35:00
8:55 PM,24.6,22.8,93,29.88,4.0,NNW,24.2,28.8,N/A,Snow,Light Snow,330,2013-03-11 01:55:00
9:15 PM,24.8,23.0,93,29.88,3.0,NNW,27.6,31.1,N/A,,Mostly Cloudy,330,2013-03-11 02:15:00
9:35 PM,24.8,23.0,93,29.89,3.0,NNW,24.2,32.2,N/A,Snow,Light Snow,330,2013-03-11 02:35:00
9:55 PM,24.8,23.0,93,29.90,4.0,NNW,21.9,27.6,N/A,Snow,Light Snow,330,2013-03-11 02:55:00
10:15 PM,24.8,23.0,93,29.90,5.0,NNW,23.0,27.6,N/A,,Overcast,330,2013-03-11 03:15:00
10:35 PM,24.8,23.0,93,29.91,5.0,NNW,23.0,26.5,N/A,Snow,Light Snow,330,2013-03-11 03:35:00
10:55 PM,24.8,22.8,92,29.91,5.0,NNW,25.3,29.9,N/A,Snow,Light Snow,330,2013-03-11 03:55:00
11:15 PM,25.2,23.0,91,29.91,7.0,NNW,20.7,27.6,N/A,,Overcast,330,2013-03-11 04:15:00
11:35 PM,24.8,23.0,93,29.91,4.0,NNW,21.9,28.8,N/A,Snow,Light Snow,340,2013-03-11 04:35:00
11:55 PM,24.6,23.0,94,29.91,4.0,NNW,18.4,26.5,N/A,Snow,Light Snow,330,2013-03-11 04:55:00
12:15 AM,24.6,22.1,90,29.90,4.0,NNW,23.0,29.9,N/A,Snow,Light Snow,340,2013-03-11 05:15:00
12:35 AM,24.1,22.5,94,29.90,4.0,NNW,21.9,27.6,N/A,Snow,Light Snow,330,2013-03-11 05:35:00
12:55 AM,23.9,22.1,93,29.90,2.5,NNW,19.6,28.8,N/A,Snow,Light Snow,330,2013-03-11 05:55:00